Volver al catálogo

STARLINK-32601

ActivoComunicacionesVLEO
NORAD 61973·PAYLOAD·🇺🇸 United States

Lanzado Nov 14, 2024 desde Cape Canaveral Space Force Station

Loading…

Próximos Pases (próximas 24 horas)

TLE

ActualizadoSource: CelesTrak SupGP

Época: Sep 15, 2026, 02:56 UTC

1 61973C 24210Q   26258.12270833 -.00033008  00000+0 -11957-2 0  2582
2 61973  42.9999 189.6567 0000980 274.9134 146.0518 15.27591024    11

Sigue STARLINK-32601 en tiempo real con AllMySat

Download on the App Store